CW9067 Weather Reports


time (UTC)temp
F
wind
direction
speed
knots
gust
knots
rain 1hr
in
rain 24hr
in
rain mn
in
humidity
%
barometer
mb
20260506155739 67 283 3.5 6.1 0.00 0.00 0.00 37 1017.4
20260506155239 67 205 3.5 8.7 0.00 0.00 0.00 38 1017.3
20260506154738 67 254 3.5 8.7 0.00 0.00 0.00 39 1017.3
20260506154240 66 282 5.2 8.7 0.00 0.00 0.00 40 1017.3
20260506153739 66 260 4.3 8.7 0.00 0.00 0.00 40 1017.3
20260506153238 65 240 3.5 7.0 0.00 0.00 0.00 41 1017.3
20260506152738 65 258 3.5 6.1 0.00 0.00 0.00 42 1017.3
20260506152238 64 274 3.5 8.7 0.00 0.00 0.00 43 1017.3
20260506151739 64 228 2.6 8.7 0.00 0.00 0.00 44 1017.3
20260506151236 63 262 3.5 7.0 0.00 0.00 0.00 44 1017.2
20260506150738 62 288 4.3 7.8 0.00 0.00 0.00 45 1017.2
20260506150238 62 225 4.3 7.8 0.00 0.00 0.00 46 1017.2
20260506150234 61 223 3.5 7.8 0.00 0.00 0.00 47 1017.2
20260506145236 60 238 3.5 7.8 0.00 0.00 0.00 47 1017.2
20260506144734 60 268 3.5 7.8 0.00 0.00 0.00 48 1017.1
20260506144234 60 238 4.3 7.8 0.00 0.00 0.00 49 1017.2
20260506143735 59 240 4.3 7.8 0.00 0.00 0.00 49 1017.2
20260506143235 59 257 3.5 7.8 0.00 0.00 0.00 49 1017.1
20260506142735 58 246 3.5 7.8 0.00 0.00 0.00 51 1017.0
20260506142234 58 257 3.5 7.8 0.00 0.00 0.00 52 1017.0
20260506141734 57 248 3.5 8.7 0.00 0.00 0.00 52 1016.8
20260506141238 56 218 6.1 8.7 0.00 0.00 0.00 54 1016.6
20260506141233 57 225 5.2 8.7 0.00 0.00 0.00 53 1016.7
20260506140232 56 176 5.2 8.7 0.00 0.00 0.00 55 1016.6
20260506135732 56 230 5.2 9.6 0.00 0.00 0.00 56 1016.5
20260506135232 55 226 6.1 9.6 0.00 0.00 0.00 56 1016.5
20260506134733 55 243 5.2 14.8 0.00 0.00 0.00 56 1016.5
20260506134234 55 254 7.0 14.8 0.00 0.00 0.00 56 1016.3
20260506133733 54 265 9.6 14.8 0.00 0.00 0.00 56 1016.3
20260506133238 53 222 7.0 13.9 0.00 0.00 0.00 57 1015.9
20260506133232 54 235 8.7 14.8 0.00 0.00 0.00 56 1016.0
20260506132231 53 244 6.1 11.3 0.00 0.00 0.00 57 1015.9
20260506131730 53 275 7.0 11.3 0.00 0.00 0.00 57 1015.9
20260506131235 53 246 7.0 10.4 0.00 0.00 0.00 57 1015.7
20260506131231 53 240 7.0 11.3 0.00 0.00 0.00 57 1015.9
20260506130230 53 238 7.0 13.0 0.00 0.00 0.00 57 1015.7
20260506125731 54 251 7.8 13.0 0.00 0.00 0.00 56 1015.7
20260506125230 54 241 9.6 13.0 0.00 0.00 0.00 56 1015.6
20260506124732 54 259 9.6 13.0 0.00 0.00 0.00 56 1015.5
20260506124234 54 223 9.6 14.8 0.00 0.00 0.00 57 1015.2
20260506124230 53 233 8.7 14.8 0.00 0.00 0.00 57 1015.3
20260506123231 53 222 10.4 14.8 0.00 0.00 0.00 57 1015.2
20260506122730 53 226 8.7 14.8 0.00 0.00 0.00 57 1015.1
20260506122234 54 217 8.7 13.9 0.00 0.00 0.00 57 1015.2
20260506122230 53 216 8.7 13.9 0.00 0.00 0.00 57 1015.0
20260506121230 54 222 9.6 15.6 0.00 0.00 0.00 57 1015.2
20260506120730 54 211 10.4 15.6 0.00 0.00 0.00 56 1015.1
20260506120235 54 229 11.3 15.6 0.00 0.00 0.00 58 1014.9
20260506120230 54 237 10.4 15.6 0.00 0.00 0.00 57 1015.0
20260506115230 54 220 11.3 16.5 0.00 0.00 0.00 58 1015.0
20260506114730 54 233 11.3 16.5 0.00 0.00 0.00 58 1015.0
20260506114230 54 219 12.2 16.5 0.00 0.00 0.00 58 1014.9
20260506113730 54 258 11.3 16.5 0.00 0.00 0.00 58 1014.9
20260506113231 54 226 11.3 16.5 0.00 0.00 0.00 59 1014.9
20260506112729 54 225 11.3 16.5 0.00 0.00 0.00 58 1014.9
20260506112230 54 212 10.4 15.6 0.00 0.00 0.00 57 1014.8
20260506111730 54 212 9.6 15.6 0.00 0.00 0.00 57 1014.9
20260506111230 54 239 10.4 14.8 0.00 0.00 0.00 57 1014.8
20260506110729 54 215 11.3 14.8 0.00 0.00 0.00 57 1014.8
20260506110230 54 228 10.4 15.6 0.00 0.00 0.00 56 1014.8
20260506105731 55 225 10.4 15.6 0.00 0.00 0.00 56 1014.8
20260506105229 54 221 10.4 16.5 0.00 0.00 0.00 56 1014.8
20260506104735 54 212 10.4 16.5 0.00 0.00 0.00 57 1014.7
20260506104731 54 207 10.4 16.5 0.00 0.00 0.00 56 1014.7
20260506103733 54 222 9.6 16.5 0.00 0.00 0.00 57 1014.6
20260506103729 54 225 10.4 16.5 0.00 0.00 0.00 57 1014.6
20260506102729 54 200 8.7 15.6 0.00 0.00 0.00 57 1014.6
20260506102230 54 234 7.8 13.0 0.00 0.00 0.00 57 1014.7
20260506101735 54 217 5.2 9.6 0.00 0.00 0.00 56 1014.7
20260506101729 54 213 6.1 10.4 0.00 0.00 0.00 57 1014.6
20260506100731 55 196 5.2 9.6 0.00 0.00 0.00 56 1014.7
20260506100229 55 232 6.1 11.3 0.00 0.00 0.00 56 1014.7
20260506095729 55 186 6.1 11.3 0.00 0.00 0.00 56 1014.6
20260506095227 55 203 6.1 10.4 0.00 0.00 0.00 56 1014.6
20260506094727 55 204 7.0 13.9 0.00 0.00 0.00 56 1014.5
20260506094227 55 220 7.0 13.9 0.00 0.00 0.00 56 1014.4
20260506093729 55 232 6.1 13.0 0.00 0.00 0.00 56 1014.4
20260506093228 55 227 7.0 13.0 0.00 0.00 0.00 56 1014.4
20260506092729 55 183 7.8 13.0 0.00 0.00 0.00 56 1014.4
20260506092229 55 228 7.8 13.0 0.00 0.00 0.00 56 1014.4
20260506091727 55 213 8.7 13.0 0.00 0.00 0.00 56 1014.3
20260506091229 55 218 7.8 12.2 0.00 0.00 0.00 57 1014.3
20260506090729 55 215 7.8 12.2 0.00 0.00 0.00 57 1014.4
20260506090231 55 203 9.6 13.0 0.00 0.00 0.00 57 1014.4
20260506090227 55 226 8.7 12.2 0.00 0.00 0.00 57 1014.4
20260506085227 55 221 9.6 13.9 0.00 0.00 0.00 57 1014.4
20260506084728 55 194 10.4 14.8 0.00 0.00 0.00 56 1014.4
20260506084228 55 232 10.4 14.8 0.00 0.00 0.00 56 1014.4
20260506083728 55 231 10.4 15.6 0.00 0.00 0.00 56 1014.4
20260506083227 55 227 10.4 15.6 0.00 0.00 0.00 55 1014.5
20260506082731 56 245 9.6 15.6 0.00 0.00 0.00 55 1014.4
20260506082727 56 245 10.4 15.6 0.00 0.00 0.00 55 1014.4
20260506081733 56 225 9.6 16.5 0.00 0.00 0.00 54 1014.4
20260506081729 56 217 8.7 16.5 0.00 0.00 0.00 54 1014.4
20260506080729 56 212 10.4 18.2 0.00 0.00 0.00 53 1014.5
20260506080227 56 213 11.3 18.2 0.00 0.00 0.00 53 1014.4
20260506072725 57 230 11.3 18.2 0.00 0.00 0.00 52 1014.2
20260506072225 57 199 11.3 18.2 0.00 0.00 0.00 52 1014.1
20260506071727 57 223 12.2 18.2 0.00 0.00 0.00 52 1013.9
20260506071722 57 211 12.2 18.2 0.00 0.00 0.00 52 1013.8
20260506071335 57 207 12.2 18.2 0.00 0.00 0.00 52 1013.7
20260506070222 57 217 11.3 17.4 0.00 0.00 0.00 52 1013.7
20260506062222 57 209 12.2 17.4 0.00 0.00 0.00 54 1013.4
20260506061723 57 211 12.2 17.4 0.00 0.00 0.00 54 1013.2
20260506061217 57 227 12.2 20.0 0.00 0.00 0.00 53 1013.1
20260506060718 57 254 12.2 20.0 0.00 0.00 0.00 54 1013.0
20260506060223 57 230 12.2 20.0 0.00 0.00 0.00 53 1012.9
20260506060217 57 225 12.2 20.0 0.00 0.00 0.00 53 1012.9
20260506051215 58 198 12.2 18.2 0.00 0.00 0.00 51 1012.8
20260506050716 58 192 11.3 18.2 0.00 0.00 0.00 50 1012.7
20260506050215 59 203 12.2 19.1 0.00 0.00 0.00 50 1012.5
20260506044713 59 209 11.3 19.1 0.00 0.00 0.00 49 1012.5
20260506044213 59 211 10.4 16.5 0.00 0.00 0.00 49 1012.3
20260506043713 59 232 10.4 17.4 0.00 0.00 0.00 49 1012.3
20260506043213 59 194 11.3 17.4 0.00 0.00 0.00 49 1012.2
20260506042713 59 221 12.2 18.2 0.00 0.00 0.00 49 1012.1
20260506042213 59 216 12.2 18.2 0.00 0.00 0.00 49 1012.1
20260506041713 59 184 11.3 19.1 0.00 0.00 0.00 48 1012.0
20260506041213 60 240 12.2 19.1 0.00 0.00 0.00 48 1011.9
20260506040713 60 221 13.0 19.1 0.00 0.00 0.00 48 1011.9
20260506040212 60 213 12.2 19.1 0.00 0.00 0.00 48 1011.8
20260506035713 60 213 12.2 17.4 0.00 0.00 0.00 47 1011.7
20260506035213 60 207 13.0 18.2 0.00 0.00 0.00 47 1011.6
20260506034713 61 220 12.2 18.2 0.00 0.00 0.00 46 1011.5
20260506034218 61 221 12.2 17.4 0.00 0.00 0.00 45 1011.5
20260506034214 61 200 11.3 18.2 0.00 0.00 0.00 45 1011.5
20260506033213 62 229 11.3 18.2 0.00 0.00 0.00 44 1011.3
20260506032713 62 216 10.4 18.2 0.00 0.00 0.00 44 1011.3
20260506032218 63 212 11.3 18.2 0.00 0.00 0.00 43 1011.0
20260506032212 62 198 11.3 18.2 0.00 0.00 0.00 44 1011.0
20260506031213 63 224 11.3 17.4 0.00 0.00 0.00 42 1010.9
20260506030713 64 207 12.2 17.4 0.00 0.00 0.00 42 1010.7
20260506030213 64 225 11.3 17.4 0.00 0.00 0.00 41 1010.7
20260506025713 64 222 11.3 17.4 0.00 0.00 0.00 41 1010.6
20260506025214 65 220 10.4 17.4 0.00 0.00 0.00 40 1010.5
20260506024712 65 230 11.3 17.4 0.00 0.00 0.00 39 1010.6
20260506024212 65 217 11.3 15.6 0.00 0.00 0.00 39 1010.4
20260506023712 66 223 11.3 15.6 0.00 0.00 0.00 38 1010.4
20260506023211 67 226 11.3 15.6 0.00 0.00 0.00 36 1010.3
20260506022711 67 234 10.4 14.8 0.00 0.00 0.00 35 1010.3
20260506022211 68 231 10.4 13.9 0.00 0.00 0.00 35 1010.2
20260506021711 68 246 10.4 13.9 0.00 0.00 0.00 34 1010.1
20260506021215 69 237 9.6 13.9 0.00 0.00 0.00 33 1010.1
20260506021211 68 238 9.6 13.9 0.00 0.00 0.00 33 1010.2
20260506020826 69 247 10.4 14.8 0.00 0.00 0.00 33 1010.1
20260506015711 70 241 9.6 14.8 0.00 0.00 0.00 32 1010.0
20260506015212 70 230 7.0 14.8 0.00 0.00 0.00 32 1009.9
20260506014710 70 237 8.7 16.5 0.00 0.00 0.00 31 1009.6
20260506014215 71 157 9.6 13.9 0.00 0.00 0.00 32 1009.5
20260506014211 70 126 11.3 16.5 0.00 0.00 0.00 33 1009.5
20260506013212 71 142 7.0 13.0 0.00 0.00 0.00 32 1009.6
20260506012712 71 144 7.0 10.4 0.00 0.00 0.00 31 1009.5
20260506012212 72 138 7.0 11.3 0.00 0.00 0.00 31 1009.5
20260506011711 72 174 7.0 11.3 0.00 0.00 0.00 30 1009.5
20260506011212 72 150 6.1 10.4 0.00 0.00 0.00 30 1009.5
20260506010716 72 184 5.2 12.2 0.00 0.00 0.00 29 1009.5
20260506010711 72 221 4.3 9.6 0.00 0.00 0.00 31 1009.5
20260506005712 72 184 4.3 12.2 0.00 0.00 0.00 29 1009.5
20260506005212 72 205 0.9 9.6 0.00 0.00 0.00 29 1009.4
20260506004710 72 300 2.6 9.6 0.00 0.00 0.00 29 1009.3
20260506004210 72 290 5.2 9.6 0.00 0.00 0.00 29 1009.3
20260506003710 72 290 5.2 9.6 0.00 0.00 0.00 29 1009.2
20260506003210 72 58 2.6 12.2 0.00 0.00 0.00 30 1009.2
20260506002711 72 168 1.7 12.2 0.00 0.00 0.00 31 1009.2
20260506002211 72 144 4.3 12.2 0.00 0.00 0.00 31 1009.2
20260506001712 72 264 6.1 12.2 0.00 0.00 0.00 31 1009.2
20260506001210 72 13 4.3 8.7 0.00 0.00 0.00 29 1009.1
20260506000715 73 314 3.5 8.7 0.00 0.00 0.00 29 1009.2
20260506000711 72 338 4.3 8.7 0.00 0.00 0.00 29 1009.3
20260505235710 73 353 4.3 11.3 0.00 0.00 0.00 29 1009.3
20260505235211 72 358 4.3 11.3 0.00 0.00 0.00 29 1009.2
20260505234710 72 22 1.7 8.7 0.00 0.00 0.00 30 1009.1
20260505234210 72 353 1.7 13.0 0.00 0.00 0.00 30 1009.2
20260505233710 73 340 4.3 13.0 0.00 0.00 0.00 29 1009.2
20260505233216 74 353 5.2 14.8 0.00 0.00 0.00 28 1009.3
20260505233211 73 15 5.2 14.8 0.00 0.00 0.00 29 1009.3
20260505232209 74 24 4.3 9.6 0.00 0.00 0.00 29 1009.3
20260505231709 74 78 2.6 8.7 0.00 0.00 0.00 29 1009.3
20260505231209 74 13 3.5 10.4 0.00 0.00 0.00 29 1009.3
20260505230708 74 236 4.3 10.4 0.00 0.00 0.00 29 1009.2
20260505230212 72 170 0.9 6.1 0.00 0.00 0.00 29 1009.4
20260505230208 73 135 2.6 7.0 0.00 0.00 0.00 30 1009.3
20260505225210 72 210 0.0 9.6 0.00 0.00 0.00 29 1009.4
20260505224714 72 234 5.2 12.2 0.00 0.00 0.00 29 1009.5
20260505224710 72 165 2.6 9.6 0.00 0.00 0.00 29 1009.5
20260505223707 72 182 6.1 12.2 0.00 0.00 0.00 29 1009.6
20260505223207 72 126 4.3 10.4 0.00 0.00 0.00 30 1009.6
20260505222707 72 147 3.5 7.8 0.00 0.00 0.00 30 1009.6
20260505222210 72 50 2.6 7.8 0.00 0.00 0.00 28 1009.7
20260505222205 71 78 2.6 7.8 0.00 0.00 0.00 28 1009.7
20260505221202 72 64 3.5 7.8 0.00 0.00 0.00 28 1009.9
20260505220702 73 86 2.6 7.8 0.00 0.00 0.00 28 1010.0
20260505220203 73 111 3.5 7.8 0.00 0.00 0.00 28 1010.0
20260505215703 73 78 4.3 7.8 0.00 0.00 0.00 27 1010.1
20260505215202 74 92 3.5 7.8 0.00 0.00 0.00 27 1010.1
20260505214702 75 61 1.7 7.8 0.00 0.00 0.00 26 1010.2
20260505214206 76 146 2.6 7.8 0.00 0.00 0.00 26 1010.1
20260505214202 76 34 1.7 7.8 0.00 0.00 0.00 26 1010.2
20260505213201 75 257 2.6 7.8 0.00 0.00 0.00 27 1010.2
20260505212705 75 182 2.6 7.8 0.00 0.00 0.00 27 1010.2
20260505212700 75 120 3.5 7.8 0.00 0.00 0.00 27 1010.2
20260505211700 74 195 2.6 7.0 0.00 0.00 0.00 27 1010.2
20260505211201 74 76 3.5 7.0 0.00 0.00 0.00 28 1010.2
20260505210700 73 173 3.5 7.8 0.00 0.00 0.00 29 1010.2
20260505210200 72 122 4.3 8.7 0.00 0.00 0.00 29 1010.2
20260505205658 72 49 4.3 8.7 0.00 0.00 0.00 29 1010.2
20260505205158 72 61 4.3 8.7 0.00 0.00 0.00 29 1010.2
20260505204658 72 103 3.5 8.7 0.00 0.00 0.00 28 1010.3
20260505204159 73 72 2.6 8.7 0.00 0.00 0.00 29 1010.3
20260505203657 73 53 3.5 7.0 0.00 0.00 0.00 29 1010.2
20260505203156 73 26 3.5 7.8 0.00 0.00 0.00 28 1010.3
20260505202657 74 149 2.6 7.8 0.00 0.00 0.00 28 1010.3
20260505202156 74 49 3.5 10.4 0.00 0.00 0.00 27 1010.3
20260505202152 75 142 5.2 12.2 0.00 0.00 0.00 27 1010.4
20260505201152 75 189 4.3 12.2 0.00 0.00 0.00 28 1010.3
20260505200651 73 230 3.5 7.8 0.00 0.00 0.00 29 1010.4
20260505200157 71 231 2.6 9.6 0.00 0.00 0.00 30 1010.5
20260505200153 72 291 2.6 7.0 0.00 0.00 0.00 30 1010.4
20260505195148 71 26 2.6 9.6 0.00 0.00 0.00 30 1010.5
20260505194646 71 51 3.5 9.6 0.00 0.00 0.00 30 1010.6
20260505194146 71 155 4.3 9.6 0.00 0.00 0.00 31 1010.7
20260505193646 70 97 3.5 8.7 0.00 0.00 0.00 31 1010.8
20260505193151 71 38 4.3 12.2 0.00 0.00 0.00 31 1010.8
20260505193146 71 338 4.3 12.2 0.00 0.00 0.00 32 1010.7
20260505192146 71 318 4.3 12.2 0.00 0.00 0.00 31 1010.9
20260505191646 70 308 4.3 12.2 0.00 0.00 0.00 31 1011.1
20260505191146 70 34 3.5 12.2 0.00 0.00 0.00 32 1010.9
20260505190645 70 126 3.5 12.2 0.00 0.00 0.00 32 1010.9
20260505190151 70 13 5.2 12.2 0.00 0.00 0.00 31 1010.9
20260505190146 70 117 5.2 12.2 0.00 0.00 0.00 32 1010.9
20260505185758 72 53 3.5 10.4 0.00 0.00 0.00 29 1010.9
20260505184643 72 242 2.6 5.2 0.00 0.00 0.00 29 1011.0
20260505184144 72 292 2.6 5.2 0.00 0.00 0.00 29 1011.0
20260505183643 72 346 2.6 6.1 0.00 0.00 0.00 29 1011.0
20260505183144 72 258 3.5 6.1 0.00 0.00 0.00 29 1010.9
20260505182643 71 259 2.6 6.1 0.00 0.00 0.00 30 1011.0
20260505182143 71 273 3.5 7.0 0.00 0.00 0.00 30 1010.9
20260505181644 70 164 3.5 7.0 0.00 0.00 0.00 31 1011.0
20260505181145 68 199 2.6 7.0 0.00 0.00 0.00 32 1011.0
20260505180649 67 344 2.6 7.0 0.00 0.00 0.00 34 1011.0
20260505180645 67 54 2.6 7.0 0.00 0.00 0.00 33 1011.0
20260505175645 66 124 2.6 7.0 0.00 0.00 0.00 34 1011.1
20260505175144 67 173 2.6 7.8 0.00 0.00 0.00 34 1011.0
20260505174644 66 340 3.5 7.8 0.00 0.00 0.00 34 1011.0
20260505174144 67 9 4.3 7.8 0.00 0.00 0.00 34 1011.0
20260505173644 67 8 4.3 7.8 0.00 0.00 0.00 33 1010.9
20260505173143 66 342 4.3 7.8 0.00 0.00 0.00 35 1010.9
20260505172644 66 9 4.3 7.8 0.00 0.00 0.00 35 1010.9
20260505172143 66 358 3.5 7.8 0.00 0.00 0.00 35 1010.8
20260505171644 65 9 2.6 7.8 0.00 0.00 0.00 36 1010.9
20260505171148 65 55 2.6 7.0 0.00 0.00 0.00 35 1010.9
20260505171144 65 26 2.6 7.0 0.00 0.00 0.00 35 1011.0
20260505170144 65 130 2.6 6.1 0.00 0.00 0.00 35 1010.9
20260505165644 65 59 1.7 4.3 0.00 0.00 0.00 36 1010.9
20260505165143 64 248 1.7 3.5 0.00 0.00 0.00 37 1010.9
20260505164643 64 124 0.9 7.0 0.00 0.00 0.00 37 1010.9
20260505164144 64 63 1.7 7.0 0.00 0.00 0.00 38 1010.9
20260505163643 63 78 3.5 7.0 0.00 0.00 0.00 38 1010.9
20260505163144 63 86 3.5 7.0 0.00 0.00 0.00 39 1010.8
20260505162643 63 62 3.5 7.0 0.00 0.00 0.00 39 1010.8
20260505162144 63 49 2.6 6.1 0.00 0.00 0.00 39 1010.7
20260505161643 63 60 1.7 5.2 0.00 0.00 0.00 39 1010.6
20260505161144 62 72 2.6 5.2 0.00 0.00 0.00 40 1010.6
20260505160643 62 319 2.6 5.2 0.00 0.00 0.00 40 1010.5
20260505160143 62 44 3.5 7.8 0.00 0.00 0.00 40 1010.6